Terminal Aerodrome Forecast
Issued by NWS Louisville, KY

Home | Current Version | Previous Version | Text Only | Print | Product List | Glossary On
Versions: 1 2 3 4 5 6 7 8 9 10 11 12 13 14 15 16 17 18 19
000
FTUS43 KLMK 301700
TAFSDF
TAF
KSDF 301720Z 3018/3124 18015G23KT P6SM -SHRA VCTS BKN045CB
      TEMPO 3018/3022 4SM -RA BR BKN035
     FM310000 20013KT P6SM VCSH BKN035
     FM310700 23011KT P6SM BKN028
     FM311200 23008KT P6SM BKN018=

USA.gov is the U.S. government's official web portal to all federal, state and local government web resources and services.